Location: Dompnac
(44.5644°N, 4.1026°E)
Time: 10:26:01
(UTC+00:00)

Cosmos 1891 Rocket - Visible Passes

Search period start: 17 January 2021 00:00
Search period end: 27 January 2021 00:00
Orbit: 933 x 1019 km, 82.9° (Epoch: 16 January)

Date Brightness Start Highest point End Pass type
(mag) Time Alt. Az. Time Alt. Az. Time Alt. Az.
17 Jan 4.8 05:03:34 10° S 05:09:45 66° E 05:15:50 10° NNE visible
17 Jan 7.0 17:44:03 10° NW 17:48:30 22° W 17:52:57 10° SW visible
18 Jan 6.9 03:46:35 10° ESE 03:50:36 18° E 03:54:34 10° NE visible
18 Jan 4.4 05:29:05 10° SSW 05:35:18 72° W 05:41:26 10° N visible
18 Jan 7.4 18:11:38 10° WNW 18:13:34 12° WNW 18:15:30 10° W visible
19 Jan 6.1 04:10:23 10° SSE 04:15:47 32° E 04:21:06 10° NNE visible
19 Jan 4.8 05:55:12 10° SW 06:01:01 41° WNW 06:06:47 10° N visible
20 Jan 5.0 04:35:05 10° S 04:41:08 57° E 04:47:06 10° NNE visible
20 Jan 5.4 06:22:02 10° WSW 06:26:55 24° WNW 06:31:46 10° NNW visible
20 Jan 6.8 17:15:08 10° NNW 17:19:57 25° W 17:24:45 10° SW visible
21 Jan 7.0 03:18:39 10° ESE 03:22:04 15° E 03:25:28 10° NE visible
21 Jan 4.3 05:00:26 10° S 05:06:39 82° W 05:12:47 10° N visible
21 Jan 7.3 17:42:10 10° NW 17:45:03 14° WNW 17:47:56 10° WSW visible
22 Jan 6.2 03:42:07 10° SE 03:47:13 28° E 03:52:16 10° NNE visible
22 Jan 4.6 05:26:24 10° SSW 05:32:19 47° WNW 05:38:11 10° N visible
23 Jan 5.2 04:06:38 10° SSE 04:12:31 49° E 04:18:21 10° NNE visible
23 Jan 5.2 05:53:03 10° SW 05:58:10 27° WNW 06:03:17 10° NNW visible
24 Jan 7.1 02:50:54 10° ESE 02:53:34 13° ENE 02:56:12 10° NE visible
24 Jan 4.4 04:31:49 10° S 04:38:00 87° E 04:44:07 10° N visible
24 Jan 5.8 06:20:41 10° W 06:24:14 16° WNW 06:27:46 10° NNW visible
24 Jan 7.1 17:12:58 10° NW 17:16:31 16° W 17:20:06 10° WSW visible
25 Jan 6.4 03:13:54 10° SE 03:18:39 24° E 03:23:22 10° NNE visible
25 Jan 4.5 04:57:37 10° SSW 05:03:38 54° WNW 05:09:34 10° N visible
26 Jan 5.4 03:42:58 40° ESE 03:43:55 43° E 03:49:36 10° NNE visible
26 Jan 5.1 05:27:48 27° W 05:29:26 31° WNW 05:34:46 10° N visible
